Flag for Germany Weather past 2 weeks in Solingen, North Rhine-Westphalia, Germany

52 °F

Light rain. Fog.

Feels Like: 46 °F
Forecast: 44 / 53 °F
Wind: 22 mph from Southwest

Location: Duesseldorf

Current Time: Dec 1, 2015 at 12:20:47 AM

Latest Report: Nov 30, 2015 at 11:20 PM

Visibility: 3 mi

Pressure: 29.92 "Hg

Humidity: 94%

Dew point: 50 °F

Location of SolingenLocation

Historic Weather in Solingen — Graph


Solingen temperature yesterday

Maximum temperature yesterday: 52 °F (at 3:20 PM)
Minimum temperature yesterday: 45 °F (at 8:20 AM)
Average temperature yesterday: 49 °F

Past Weeks' High & Low Weather Summary

High61 °F (Nov 17, 11:20 AM)100% (Nov 17, 3:20 AM)30.27 "Hg (Nov 17, 3:20 AM)
Low32 °F (Nov 22, 7:20 AM)59% (Nov 18, 3:20 AM)29.39 "Hg (Nov 21, 7:20 AM)
Average45 °F83%29.86 "Hg
* Reported Nov 15 11:20 PM — Nov 30 11:20 PM, Solingen, Weather by CustomWeather, © 2015

Note: Actual official high and low records may vary slightly from our data, if they occured in-between our weather recording intervals... More about our weather records


Solingen weather history for previous 24 hours

Time TempWeatherWind HumidityBarometerVisibility
11:20 PM
Mon, Nov 30
52 °FLight rain. Fog.22 mph94%29.92 "Hg3 mi
10:50 PM52 °FLight rain. Fog.22 mph94%29.92 "Hg3 mi
10:20 PM52 °FLight rain. Fog.22 mph94%29.92 "Hg3 mi
9:50 PM52 °FLight rain. Fog.24 mph94%29.89 "Hg3 mi
9:20 PM52 °FLight rain. Partly cloudy.25 mph94%29.89 "HgN/A
8:50 PM52 °FLight rain. Passing clouds.24 mph88%29.89 "HgN/A
8:20 PM52 °FLight rain. Passing clouds.26 mph88%29.86 "HgN/A
7:50 PM52 °FLight rain. Partly cloudy.29 mph88%29.86 "HgN/A
7:20 PM52 °FLight rain. Partly cloudy.25 mph88%29.86 "HgN/A
6:50 PM50 °FRain. Passing clouds.25 mph94%29.86 "HgN/A
6:20 PM52 °FRain. Mostly cloudy.23 mph88%29.89 "Hg6 mi
5:50 PM52 °FLight rain. Passing clouds.25 mph82%29.89 "HgN/A
5:20 PM52 °FLight rain. Passing clouds.25 mph82%29.89 "HgN/A
4:50 PM50 °FLight rain. Passing clouds.22 mph94%29.89 "HgN/A
4:20 PM52 °FLight rain. Partly sunny.24 mph88%29.92 "HgN/A
3:50 PM52 °FLight rain. Mostly cloudy.23 mph88%29.92 "HgN/A
3:20 PM52 °FLight rain. Partly sunny.22 mph88%29.92 "HgN/A
2:50 PM50 °FLight rain. Partly sunny.24 mph94%29.95 "Hg4 mi
2:20 PM50 °FLight rain. Partly sunny.20 mph94%29.95 "Hg5 mi
1:50 PM50 °FRain. Fog.18 mph94%29.98 "Hg3 mi
1:20 PM48 °FRain. Broken clouds.14 mph94%29.98 "Hg4 mi
12:50 PM46 °FLight rain. Broken clouds.13 mph100%30.01 "Hg4 mi
12:20 PM46 °FLight rain. Partly sunny.10 mph93%30.01 "Hg5 mi
11:50 AM46 °FLight rain. Partly sunny.8 mph87%30.07 "HgN/A
11:20 AM45 °FLight rain. Broken clouds.10 mph87%30.07 "Hg6 mi
10:50 AM46 °FLight rain. More clouds than sun.13 mph82%30.07 "HgN/A
10:20 AM46 °FLight rain. Clear.12 mph76%30.09 "HgN/A
9:50 AM46 °FSunny.10 mph76%30.09 "Hg10 mi
9:20 AM45 °FMore clouds than sun.8 mph81%30.09 "HgN/A
8:50 AM45 °FOvercast.9 mph81%30.09 "HgN/A
8:20 AM45 °FMore clouds than sun.7 mph76%30.09 "HgN/A
7:50 AM46 °FMostly cloudy.10 mph71%30.09 "HgN/A
7:20 AM46 °FMostly cloudy.9 mph71%30.07 "HgN/A
6:50 AM48 °FPartly cloudy.12 mph66%30.07 "HgN/A
6:20 AM48 °FLight rain. Passing clouds.9 mph71%30.04 "HgN/A
5:50 AM48 °FLight rain. Passing clouds.10 mph71%30.04 "HgN/A
5:20 AM48 °FClear.15 mph71%30.01 "Hg10 mi
4:50 AM48 °FPartly cloudy.12 mph71%30.01 "HgN/A
4:20 AM48 °FPartly cloudy.13 mph76%29.98 "HgN/A
3:50 AM48 °FClear.13 mph76%29.98 "Hg10 mi
3:20 AM48 °FPassing clouds.15 mph76%29.95 "HgN/A
2:50 AM50 °FMostly cloudy.15 mph76%29.95 "HgN/A
2:20 AM50 °FPartly cloudy.16 mph82%29.92 "HgN/A
1:50 AM50 °FClear.16 mph82%29.89 "Hg10 mi
1:20 AM48 °FClear.13 mph87%29.89 "Hg10 mi
12:50 AM48 °FPassing clouds.15 mph94%29.86 "HgN/A
Weather by CustomWeather, © 2015

See weather overviewHow to use our weather pages